DLH5PX EDDF-LJLJ

Flight info

Callsign DLH5PX
Flight time 1h 0m
Altitude 35000
Route CINDY2D CINDY Z74 LAMPU DCT NOMBO Y161 MAH L173 OTT M867 RADIZ DCT LUMUS LUMUS4L
Aircraft CRJ9/M-SDE2FGIJ1LORWXY/HB1

Departure

Time 2026-04-17 10:42
Airport Frankfurt Main Airport (EDDF)

Arrival

Time 2026-04-17 11:42
Airport Ljubljana Jože Pučnik Airport (LJLJ)
Time Latitude Longitude Altitude Speed Heading
2026-04-17 10:33 50.03697 8.54088 341 ft 0 kts 159°
2026-04-17 10:38 50.03685 8.54095 339 ft 4 kts 160°
2026-04-17 10:38 50.03648 8.54111 338 ft 7 kts 176°
2026-04-17 10:39 50.03603 8.54077 340 ft 9 kts 240°
2026-04-17 10:39 50.03576 8.53975 337 ft 12 kts 249°
2026-04-17 10:39 50.03543 8.53832 337 ft 16 kts 250°
2026-04-17 10:39 50.03498 8.53646 335 ft 19 kts 250°
2026-04-17 10:40 50.03450 8.53447 337 ft 20 kts 250°
2026-04-17 10:40 50.03401 8.53240 332 ft 21 kts 250°
2026-04-17 10:40 50.03347 8.53023 330 ft 22 kts 251°
2026-04-17 10:40 50.03294 8.52796 332 ft 23 kts 249°
2026-04-17 10:41 50.03249 8.52641 332 ft 11 kts 234°
2026-04-17 10:41 50.03183 8.52597 333 ft 11 kts 180°
2026-04-17 10:41 50.03042 8.52598 330 ft 39 kts 180°
2026-04-17 10:41 50.02552 8.52602 331 ft 100 kts 180°
2026-04-17 10:42 50.01680 8.52610 332 ft 148 kts 179°
2026-04-17 10:42 50.00581 8.52630 669 ft 162 kts 179°
2026-04-17 10:42 49.99621 8.52715 1226 ft 162 kts 174°
2026-04-17 10:42 49.98521 8.52966 1968 ft 160 kts 172°
2026-04-17 10:43 49.97391 8.53204 2369 ft 174 kts 178°
2026-04-17 10:43 49.96114 8.53165 2696 ft 191 kts 182°
2026-04-17 10:43 49.94759 8.53080 3241 ft 198 kts 181°
2026-04-17 10:43 49.93326 8.53067 3844 ft 213 kts 178°
2026-04-17 10:44 49.91816 8.53154 4653 ft 220 kts 176°
2026-04-17 10:44 49.90782 8.53243 5316 ft 221 kts 176°
2026-04-17 10:44 49.89237 8.53371 6292 ft 224 kts 177°
2026-04-17 10:44 49.87671 8.53499 7193 ft 227 kts 177°
2026-04-17 10:45 49.86077 8.53619 8064 ft 231 kts 177°
2026-04-17 10:45 49.84455 8.53726 8890 ft 236 kts 177°
2026-04-17 10:45 49.82804 8.53831 9725 ft 240 kts 178°
2026-04-17 10:45 49.81045 8.53956 10099 ft 266 kts 175°
2026-04-17 10:46 49.79237 8.54879 10488 ft 288 kts 144°
2026-04-17 10:46 49.77943 8.57331 10980 ft 307 kts 113°
2026-04-17 10:46 49.77558 8.60633 11568 ft 321 kts 91°
2026-04-17 10:46 49.77551 8.64129 12298 ft 328 kts 88°
2026-04-17 10:47 49.77581 8.67685 13090 ft 334 kts 88°
2026-04-17 10:47 49.77584 8.71300 13875 ft 339 kts 89°
2026-04-17 10:47 49.77522 8.74958 14658 ft 343 kts 91°
2026-04-17 10:47 49.77390 8.78669 15415 ft 347 kts 92°
2026-04-17 10:48 49.77238 8.82423 16135 ft 352 kts 92°
2026-04-17 10:48 49.77101 8.86170 16813 ft 356 kts 91°
2026-04-17 10:48 49.76964 8.90018 17487 ft 360 kts 91°
2026-04-17 10:48 49.76820 8.93959 18160 ft 364 kts 91°
2026-04-17 10:49 49.76677 8.97893 18796 ft 368 kts 91°
2026-04-17 10:49 49.76560 9.01153 19278 ft 371 kts 91°
2026-04-17 10:49 49.76406 9.05157 19881 ft 375 kts 91°
2026-04-17 10:49 49.76242 9.09202 20436 ft 380 kts 94°
2026-04-17 10:50 49.75767 9.13247 20989 ft 384 kts 102°
2026-04-17 10:50 49.75047 9.17253 21488 ft 390 kts 108°
2026-04-17 10:50 49.73728 9.20928 21990 ft 395 kts 127°
2026-04-17 10:50 49.71924 9.24157 22477 ft 399 kts 133°
2026-04-17 10:51 49.69998 9.27271 22944 ft 403 kts 134°
2026-04-17 10:51 49.68061 9.30418 23404 ft 406 kts 133°
2026-04-17 10:51 49.66164 9.33676 23835 ft 410 kts 130°
2026-04-17 10:51 49.64289 9.37016 24257 ft 413 kts 130°
2026-04-17 10:52 49.62386 9.40358 24705 ft 416 kts 132°
2026-04-17 10:52 49.60175 9.43259 25086 ft 419 kts 146°
2026-04-17 10:52 49.57681 9.45591 25499 ft 421 kts 152°
2026-04-17 10:52 49.55100 9.47748 25880 ft 424 kts 153°
2026-04-17 10:53 49.52496 9.49927 26267 ft 427 kts 152°
2026-04-17 10:53 49.49918 9.52215 26617 ft 429 kts 150°
2026-04-17 10:53 49.47356 9.54592 26983 ft 431 kts 150°
2026-04-17 10:53 49.44772 9.56962 27316 ft 434 kts 150°
2026-04-17 10:54 49.42165 9.59325 27660 ft 436 kts 150°
2026-04-17 10:54 49.39547 9.61702 27982 ft 438 kts 150°
2026-04-17 10:54 49.36910 9.64091 28285 ft 441 kts 150°
2026-04-17 10:54 49.34295 9.66554 28576 ft 443 kts 144°
2026-04-17 10:55 49.31950 9.69535 28863 ft 446 kts 137°
2026-04-17 10:55 49.29763 9.72914 29138 ft 447 kts 133°
2026-04-17 10:55 49.27640 9.76411 29423 ft 449 kts 132°
2026-04-17 10:55 49.25494 9.79900 29707 ft 451 kts 134°
2026-04-17 10:56 49.23275 9.83310 29925 ft 453 kts 135°
2026-04-17 10:56 49.21026 9.86708 30179 ft 455 kts 135°
2026-04-17 10:56 49.18776 9.90118 30426 ft 456 kts 135°
2026-04-17 10:56 49.16519 9.93538 30664 ft 458 kts 135°
2026-04-17 10:57 49.14247 9.96977 30866 ft 460 kts 135°
2026-04-17 10:57 49.11975 10.00422 31092 ft 462 kts 135°
2026-04-17 10:57 49.10011 10.03396 31204 ft 466 kts 135°
2026-04-17 10:57 49.07706 10.06876 31413 ft 467 kts 135°
2026-04-17 10:58 49.05367 10.10329 31630 ft 469 kts 136°
2026-04-17 10:58 49.02973 10.13709 31836 ft 470 kts 137°
2026-04-17 10:58 49.00570 10.17080 32130 ft 469 kts 137°
2026-04-17 10:58 48.98530 10.19964 32359 ft 468 kts 137°
2026-04-17 10:59 48.96145 10.23345 32606 ft 468 kts 137°
2026-04-17 10:59 48.93765 10.26723 32867 ft 467 kts 137°
2026-04-17 10:59 48.91377 10.30067 33108 ft 467 kts 137°
2026-04-17 10:59 48.88994 10.33422 33337 ft 467 kts 137°
2026-04-17 11:00 48.86618 10.36778 33588 ft 466 kts 137°
2026-04-17 11:00 48.84240 10.40120 33799 ft 466 kts 137°
2026-04-17 11:00 48.81893 10.43508 34027 ft 465 kts 135°
2026-04-17 11:00 48.79626 10.47007 34257 ft 465 kts 133°
2026-04-17 11:01 48.77424 10.50599 34454 ft 465 kts 132°
2026-04-17 11:01 48.75233 10.54200 34657 ft 465 kts 132°
2026-04-17 11:01 48.73040 10.57796 34847 ft 465 kts 133°
2026-04-17 11:01 48.70821 10.61345 35060 ft 464 kts 133°
2026-04-17 11:02 48.68594 10.64895 35161 ft 466 kts 133°
2026-04-17 11:02 48.64086 10.72062 35227 ft 474 kts 134°
2026-04-17 11:03 48.59494 10.79340 35246 ft 483 kts 133°
2026-04-17 11:03 48.54813 10.86720 35247 ft 490 kts 133°
2026-04-17 11:04 48.50069 10.94220 35251 ft 497 kts 133°
2026-04-17 11:04 48.45665 11.01232 35245 ft 504 kts 133°
2026-04-17 11:05 48.40794 11.08892 35240 ft 508 kts 134°
2026-04-17 11:05 48.35866 11.16547 35241 ft 510 kts 134°
2026-04-17 11:06 48.30920 11.24235 35239 ft 512 kts 132°
2026-04-17 11:06 48.28784 11.28498 35237 ft 511 kts 119°
2026-04-17 11:06 48.27173 11.33243 35250 ft 510 kts 113°
2026-04-17 11:07 48.24417 11.42895 35244 ft 510 kts 108°
2026-04-17 11:07 48.22660 11.53123 35246 ft 507 kts 98°
2026-04-17 11:08 48.21148 11.63477 35238 ft 509 kts 101°
2026-04-17 11:08 48.19236 11.73700 35230 ft 512 kts 111°
2026-04-17 11:08 48.17559 11.78416 35238 ft 514 kts 122°
2026-04-17 11:09 48.15471 11.82773 35246 ft 515 kts 126°
2026-04-17 11:09 48.10940 11.91072 35243 ft 516 kts 131°
2026-04-17 11:10 48.03543 12.01718 35235 ft 517 kts 139°
2026-04-17 11:10 47.98554 12.08321 35226 ft 517 kts 137°
2026-04-17 11:11 47.93263 12.15586 35217 ft 516 kts 138°
2026-04-17 11:11 47.87862 12.22540 35217 ft 511 kts 140°
2026-04-17 11:12 47.82431 12.29328 35217 ft 508 kts 140°
2026-04-17 11:12 47.77041 12.36085 35219 ft 505 kts 140°
2026-04-17 11:13 47.71671 12.42805 35211 ft 504 kts 140°
2026-04-17 11:13 47.66286 12.49423 35209 ft 502 kts 140°
2026-04-17 11:14 47.60925 12.56039 35211 ft 501 kts 140°
2026-04-17 11:14 47.55612 12.62597 35217 ft 500 kts 140°
2026-04-17 11:15 47.50264 12.69182 35203 ft 500 kts 140°
2026-04-17 11:15 47.44917 12.75750 35200 ft 499 kts 140°
2026-04-17 11:16 47.39578 12.82303 35207 ft 499 kts 140°
2026-04-17 11:16 47.34245 12.88849 35214 ft 499 kts 140°
2026-04-17 11:17 47.28905 12.95383 35207 ft 499 kts 140°
2026-04-17 11:17 47.24034 13.01325 35215 ft 499 kts 140°
2026-04-17 11:18 47.18695 13.07829 35210 ft 499 kts 140°
2026-04-17 11:18 47.13365 13.14313 35187 ft 491 kts 140°
2026-04-17 11:19 47.10767 13.17481 35087 ft 480 kts 140°
2026-04-17 11:19 47.08228 13.20573 34984 ft 470 kts 140°
2026-04-17 11:19 47.05724 13.23619 34689 ft 467 kts 140°
2026-04-17 11:19 47.03223 13.26655 34255 ft 467 kts 140°
2026-04-17 11:20 47.00720 13.29689 33759 ft 468 kts 140°
2026-04-17 11:20 46.98607 13.32245 33359 ft 469 kts 140°
2026-04-17 11:20 46.96092 13.35289 32909 ft 470 kts 140°
2026-04-17 11:20 46.93570 13.38334 32402 ft 471 kts 140°
2026-04-17 11:21 46.91044 13.41382 31950 ft 470 kts 140°
2026-04-17 11:21 46.88516 13.44431 31511 ft 470 kts 140°
2026-04-17 11:21 46.86002 13.47460 31132 ft 467 kts 140°
2026-04-17 11:21 46.83498 13.50477 30774 ft 465 kts 140°
2026-04-17 11:22 46.81010 13.53465 30426 ft 463 kts 140°
2026-04-17 11:22 46.78579 13.56380 30107 ft 460 kts 140°
2026-04-17 11:22 46.76062 13.59399 29761 ft 458 kts 140°
2026-04-17 11:22 46.73655 13.62290 29475 ft 455 kts 140°
2026-04-17 11:23 46.71211 13.65221 29159 ft 452 kts 140°
2026-04-17 11:23 46.68784 13.68126 28838 ft 450 kts 140°
2026-04-17 11:23 46.66373 13.71010 28585 ft 447 kts 140°
2026-04-17 11:23 46.63976 13.73877 28300 ft 445 kts 140°
2026-04-17 11:24 46.61590 13.76725 28026 ft 443 kts 140°
2026-04-17 11:24 46.59215 13.79553 27765 ft 440 kts 140°
2026-04-17 11:24 46.56860 13.82374 27511 ft 437 kts 139°
2026-04-17 11:24 46.54532 13.85195 27244 ft 435 kts 140°
2026-04-17 11:25 46.52201 13.87973 27007 ft 432 kts 140°
2026-04-17 11:25 46.49911 13.90777 26695 ft 429 kts 134°
2026-04-17 11:25 46.47976 13.94041 26421 ft 425 kts 126°
2026-04-17 11:25 46.46209 13.97464 26078 ft 422 kts 123°
2026-04-17 11:26 46.44788 14.00420 25901 ft 414 kts 122°
2026-04-17 11:26 46.43181 14.03821 25678 ft 406 kts 122°
2026-04-17 11:26 46.41587 14.07186 25142 ft 403 kts 123°
2026-04-17 11:26 46.39972 14.10479 24598 ft 399 kts 123°
2026-04-17 11:27 46.38372 14.13736 24082 ft 395 kts 123°
2026-04-17 11:27 46.36783 14.16951 23556 ft 391 kts 124°
2026-04-17 11:27 46.35209 14.20138 23042 ft 387 kts 124°
2026-04-17 11:27 46.33646 14.23285 22528 ft 384 kts 124°
2026-04-17 11:28 46.32093 14.26407 22021 ft 380 kts 124°
2026-04-17 11:28 46.30547 14.29494 21508 ft 378 kts 124°
2026-04-17 11:28 46.29011 14.32555 21029 ft 374 kts 124°
2026-04-17 11:28 46.27486 14.35585 20539 ft 371 kts 124°
2026-04-17 11:29 46.25969 14.38590 20074 ft 368 kts 124°
2026-04-17 11:29 46.24465 14.41566 19596 ft 365 kts 124°
2026-04-17 11:29 46.22968 14.44517 19165 ft 362 kts 124°
2026-04-17 11:29 46.21487 14.47446 18719 ft 360 kts 124°
2026-04-17 11:30 46.20008 14.50352 18254 ft 358 kts 124°
2026-04-17 11:30 46.18539 14.53231 17819 ft 355 kts 125°
2026-04-17 11:30 46.17080 14.56092 17369 ft 353 kts 125°
2026-04-17 11:30 46.15632 14.58923 16950 ft 350 kts 125°
2026-04-17 11:31 46.14189 14.61734 16523 ft 347 kts 125°
2026-04-17 11:31 46.13236 14.63584 16232 ft 346 kts 125°
2026-04-17 11:31 46.11802 14.66355 15807 ft 344 kts 125°
2026-04-17 11:31 46.10381 14.69107 15373 ft 341 kts 125°
2026-04-17 11:32 46.08968 14.71834 14928 ft 339 kts 125°
2026-04-17 11:32 46.07668 14.74627 14485 ft 334 kts 111°
2026-04-17 11:32 46.07239 14.78864 13704 ft 326 kts 88°
2026-04-17 11:32 46.07132 14.81134 12753 ft 347 kts 95°
2026-04-17 11:33 46.06626 14.84570 11919 ft 351 kts 103°
2026-04-17 11:33 46.05852 14.88065 10410 ft 377 kts 109°
2026-04-17 11:33 46.04822 14.91386 10062 ft 356 kts 116°
2026-04-17 11:33 46.03298 14.94233 8238 ft 369 kts 136°
2026-04-17 11:34 46.01042 14.96060 6634 ft 374 kts 164°
2026-04-17 11:34 45.98996 14.96212 6738 ft 333 kts 188°
2026-04-17 11:34 45.96962 14.95026 6313 ft 311 kts 218°
2026-04-17 11:34 45.95664 14.92542 5102 ft 317 kts 252°
2026-04-17 11:35 45.95625 14.89638 5255 ft 273 kts 291°
2026-04-17 11:35 45.96494 14.87282 4624 ft 273 kts 312°
2026-04-17 11:35 45.97932 14.85465 4203 ft 268 kts 327°
2026-04-17 11:35 45.99364 14.84048 4515 ft 237 kts 328°
2026-04-17 11:36 46.00472 14.82950 4441 ft 235 kts 326°
2026-04-17 11:36 46.01820 14.81570 4340 ft 235 kts 326°
2026-04-17 11:36 46.03066 14.80246 4524 ft 213 kts 326°
2026-04-17 11:36 46.04278 14.78987 4410 ft 217 kts 327°
2026-04-17 11:37 46.05462 14.77840 4736 ft 190 kts 330°
2026-04-17 11:37 46.06540 14.76812 4881 ft 186 kts 326°
2026-04-17 11:37 46.07530 14.75490 4710 ft 201 kts 313°
2026-04-17 11:37 46.08345 14.73860 4762 ft 202 kts 303°
2026-04-17 11:38 46.09032 14.72008 4580 ft 216 kts 299°
2026-04-17 11:38 46.09730 14.70080 4525 ft 221 kts 303°
2026-04-17 11:38 46.10546 14.68223 4653 ft 218 kts 303°
2026-04-17 11:38 46.11330 14.66342 4706 ft 221 kts 304°
2026-04-17 11:39 46.12228 14.64513 4323 ft 225 kts 311°
2026-04-17 11:39 46.13258 14.62859 3754 ft 219 kts 315°
2026-04-17 11:39 46.14276 14.61227 3141 ft 217 kts 311°
2026-04-17 11:39 46.15238 14.59577 2659 ft 213 kts 311°
2026-04-17 11:40 46.16145 14.57961 2377 ft 191 kts 308°
2026-04-17 11:40 46.16884 14.56550 2257 ft 169 kts 306°
2026-04-17 11:40 46.17540 14.55118 2072 ft 171 kts 303°
2026-04-17 11:40 46.18204 14.53787 2024 ft 157 kts 307°
2026-04-17 11:41 46.18872 14.52548 1726 ft 150 kts 309°
2026-04-17 11:41 46.19479 14.51389 1677 ft 144 kts 306°
2026-04-17 11:41 46.20057 14.50250 1628 ft 139 kts 307°
2026-04-17 11:41 46.20647 14.49092 1533 ft 144 kts 308°
2026-04-17 11:42 46.21245 14.47947 1363 ft 142 kts 307°
2026-04-17 11:42 46.21824 14.46824 1219 ft 126 kts 307°
2026-04-17 11:42 46.22198 14.46090 1241 ft 57 kts 307°
2026-04-17 11:42 46.22389 14.45722 1248 ft 41 kts 307°
2026-04-17 11:43 46.22550 14.45462 1247 ft 31 kts 323°
2026-04-17 11:43 46.22691 14.45355 1254 ft 13 kts 342°
2026-04-17 11:43 46.22764 14.45327 1256 ft 7 kts 349°
2026-04-17 11:43 46.22811 14.45317 1264 ft 7 kts 352°
2026-04-17 11:44 46.22856 14.45268 1263 ft 10 kts 310°
2026-04-17 11:44 46.22903 14.45177 1261 ft 13 kts 305°
2026-04-17 11:44 46.22989 14.45137 1266 ft 17 kts 30°
2026-04-17 11:44 46.23046 14.45209 1263 ft 9 kts 83°
2026-04-17 11:45 46.23019 14.45276 1261 ft 7 kts 146°
2026-04-17 11:45 46.22984 14.45263 1262 ft 5 kts 200°
2026-04-17 11:45 46.22970 14.45272 1257 ft 3 kts 118°
2026-04-17 11:45 46.22969 14.45278 1257 ft 0 kts 91°